Location: Newark
(58.8333°N, 23.5833°E)
Time: 11:53:58
(UTC+00:00)

METEOR M2 - Pass Details

Date: 16 December 2019
Orbit: 819 x 827 km, 98.5° (Epoch: 27 January)

Event Time Altitude Azimuth Distance (km) Brightness Sun altitude
Exits shadow 15:59:01 23° 42° (NE) 1,690 ? -17.0°
Drops below altitude 10° 16:02:47 10° 357° (N) 2,431 ? -17.5°
Sets 16:05:34 0° 344° (NNW) 3,367 ? -17.8°
